Regional Weather Roundup
Issued by NWS

Home | Current Version | Previous Version | Graphics & Text | Print | Product List | Glossary On
Versions: 1 2 3 4 5 6 7 8 9 10 11 12 13 14 15 16 17 18 19 20 21 22 23 24 25 26 27 28 29 30 31 32 33 34 35 36 37 38 39 40 41 42 43 44 45 46 47 48 49 50
000
ASUS44 KMEG 170500
RWRTN
TENNESSEE HOURLY STATE WEATHER ROUNDUP
NATIONAL WEATHER SERVICE MEMPHIS TN
1200 AM CDT THU APR 17 2014

TNZ002-004-019-021-049-052-054-088>092-170600-
WEST TENNESSEE

CITY           SKY/WX    TMP DP  RH WIND       PRES   REMARKS
MEMPHIS INTL   PTCLDY    48  35  60 CALM      30.18R
NWS MEMPHIS      N/A     43 N/A N/A MISG        N/A
JACKSON        PTCLDY    41  34  76 CALM      30.19R
DYERSBURG      PTCLDY    48  28  46 SE5       30.19R
UNION CITY     CLEAR     45  30  57 SE5       30.16S
LEXINGTON      CLEAR     43  34  70 CALM      30.19R
$$

TNZ008-025-027-028-033-062-065-066-170600-
NORTH MIDDLE TENNESSEE

CITY           SKY/WX    TMP DP  RH WIND       PRES   REMARKS
NASHVILLE      PTCLDY    44  36  73 S3        30.23R
CLARKSVILLE    PTCLDY    44  31  60 SE6       30.21R
COOKEVILLE     CLEAR     37  34  87 CALM      30.25R
CROSSVILLE     CLEAR     47  26  44 VRB5      30.27R
$$

TNZ061-075-076-078-094-096-097-170600-
SOUTH MIDDLE TENNESSEE

CITY           SKY/WX    TMP DP  RH WIND       PRES   REMARKS
TULLAHOMA      CLEAR     52  27  37 SE10      30.26R
WINCHESTER     CLEAR     50  28  43 SE10      30.26R
MCMINNVILLE    CLEAR     50  28  43 S5        30.25R
COLUMBIA       CLEAR     41  37  87 CALM      30.21R
$$

TNZ017-018-042-046-047-170600-
NORTHEAST TENNESSEE

CITY           SKY/WX    TMP DP  RH WIND       PRES   REMARKS
TRI CITIES     CLEAR     47  19  33 E10       30.33R
ELIZABETHTON   CLEAR     43  21  42 CALM      30.35R
$$

TNZ012-013-036-069-073-074-170600-
CENTRAL EAST TENNESSEE

CITY           SKY/WX    TMP DP  RH WIND       PRES   REMARKS
KNOXVILLE      CLEAR     42  33  70 CALM      30.28R
OAK RIDGE      CLEAR     43  33  68 CALM      30.30R
$$

TNZ083-085-099-170600-
SOUTHEAST TENNESSEE

CITY           SKY/WX    TMP DP  RH WIND       PRES   REMARKS
CHATTANOOGA    CLEAR     52  26  36 S6        30.30R
$$

SKY/WX REPORTED AS FAIR MEANS FEW OR NO CLOUDS BELOW
12 THOUSAND FEET.




USA.gov is the U.S. government's official web portal to all federal, state and local government web resources and services.